{"data":{"norad_id":53799,"epoch":"2026-09-20T22:16:59.266272Z","epoch_age_seconds":47435,"freshness":"FRESH","line1":"1 53799U 22111AC  26263.92846373  .00055699  00000+0  16682-2 0  9999","line2":"2 53799  53.1604  92.0616 0000962 115.8934 244.2167 15.34003761223504","mean_motion":15.34003761,"eccentricity":9.62e-5,"inclination_deg":53.1604,"raan_deg":92.0616,"arg_perigee_deg":115.8934,"mean_anomaly_deg":244.2167,"bstar":0.0016682,"rev_number":22350,"period_min":93.871999313827,"perigee_km":463.22299736552,"apogee_km":464.53940166711,"semimajor_km":6842.0181995163,"source":"CELESTRAK","updated_at":"2026-09-21T09:00:32.995737Z"}}